Starlink 3826

operational
NORAD ID: 52347 Int'l Des: 2022-045 Owner: SPXS Country: US Constellation: starlink
LEOCIRCULAR

关于 Starlink 3826

正在加载描述...

实时位置

正在加载3D地球...

即将过境

高度历史

Altitude vs Time

uPlot chart will show altitude changes over time

两行轨道根数

1 52347U 22045S 26073.68733605 -.00003214 00000-0 -18383-3 0 9998
2 52347 53.2177 176.6901 0001180 105.6959 254.4163 15.08856606216530
Epoch: Mar 14, 2026 • Age: 17 hours

当前状态

高度 557.8 km
速度 7.58 km/s
星下点 -49.98°S, 153.22°E
发射日期 Apr 29, 2022
运行时间 3.8 years
类型 internet

技术详情

分类 Payload
质量 297.00 kg
干质量 275.00 kg
总质量 297.00 kg
长度 0.20 m
直径 2.80 m
跨度 9.00 m
形状 Box + pan
制造商 SPXS
平台类型 Starlink
阶段状态 In Orbit
所有者/国家 SPXS/US

大型星座

Loading constellations...